Location: Unspecified
(52.1971°N, 0.0000°E)
Time: 20:04:42
(UTC+00:00)

YUBILEINY - Pass Details

Date: 19 December 2019
Orbit: 1478 x 1509 km, 82.5° (Epoch: 18 January)

Event Time Altitude Azimuth Distance (km) Brightness Sun altitude
Rises 05:56:58 0° 348° (NNW) 4,612 ? -18.3°
Reaches altitude 10° 06:00:11 10° 356° (N) 3,630 ? -17.8°
Maximum altitude 06:08:11 38° 63° (ENE) 2,115 ? -16.6°
Drops below altitude 10° 06:16:09 10° 129° (SE) 3,624 ? -15.5°
Sets 06:19:19 0° 138° (SE) 4,604 ? -15.0°
